* Astronomy

Members Login
Username 
 
Password 
    Remember Me  
Post Info TOPIC: Asteroid 2011 CY71


L

Posts: 131433
Date:
Asteroid 2011 CY71
Permalink  
 


Orbital elements:
2011 CY71 Earth MOID = 0.1831 AU
Epoch 2011 Feb. 8.0 TT = JDT 2455600.5 MPC
M 351.63373 (2000.0) P Q
n 0.20511676 Peri. 203.56681 -0.99300957 -0.02764123
a 2.8475320 Node 334.04469 +0.09147261 -0.79463920
e 0.5937624 Incl. 15.19992 -0.07459731 -0.60645240
P 4.81 H 23.7 G 0.15
From 10 observations 2011 Feb. 13.

MPEC 2011 - D03


__________________
Page 1 of 1  sorted by
 
Quick Reply

Please log in to post quick replies.



Create your own FREE Forum
Report Abuse
Powered by ActiveBoard